Location: Cheching
(60.0667°N, 164.2167°W)
Time: 01:10:35
(UTC+00:00)

BEESAT - Visible Passes

Search period start: 24 January 2021 00:00
Search period end: 03 February 2021 00:00
Orbit: 700 x 708 km, 98.6° (Epoch: 23 January)

Date Brightness Start Highest point End Pass type
(mag) Time Alt. Az. Time Alt. Az. Time Alt. Az.
24 Jan ? 05:21:08 31° ESE 05:21:08 31° ESE 05:24:46 10° SSE visible
24 Jan ? 07:00:02 40° WSW 07:00:02 40° WSW 07:03:13 10° SW visible
24 Jan ? 13:22:36 10° NNE 13:22:47 10° NNE 13:22:55 10° NNE visible
24 Jan ? 14:55:09 10° ESE 14:59:09 27° NE 15:01:56 16° N visible
24 Jan ? 16:31:42 10° SSE 16:36:30 79° WSW 16:40:53 13° NNW visible
24 Jan ? 18:11:48 10° SW 18:15:02 18° W 18:18:17 10° NW visible
25 Jan ? 04:25:46 14° E 04:25:46 14° E 04:27:51 10° ESE visible
25 Jan ? 06:04:40 57° SE 06:04:40 57° SE 06:08:49 10° S visible
25 Jan ? 07:43:35 23° W 07:43:35 23° W 07:45:50 10° WSW visible
25 Jan ? 14:02:41 10° ENE 14:05:22 15° NE 14:07:09 13° NNE visible
25 Jan ? 15:37:35 10° SE 15:42:09 47° ENE 15:46:05 14° N visible
25 Jan ? 17:15:30 10° SSW 17:20:01 40° W 17:24:33 10° NNW visible
26 Jan ? 05:09:18 27° E 05:09:18 27° E 05:13:17 10° SSE visible
26 Jan ? 06:48:12 58° WSW 06:48:12 58° WSW 06:52:11 10° SSW visible
26 Jan ? 08:27:06 13° W 08:27:06 13° W 08:27:54 10° W visible
26 Jan ? 14:44:21 10° E 14:48:08 24° NE 14:51:20 13° N visible
26 Jan ? 16:20:34 10° SSE 16:25:22 87° ENE 16:30:12 10° NNW visible
26 Jan ? 18:00:08 10° SW 18:03:46 21° W 18:07:24 10° NW visible
27 Jan ? 04:13:54 11° ENE 04:14:01 12° E 04:15:39 10° E visible
27 Jan ? 05:52:48 52° E 05:52:55 52° ESE 05:57:33 10° S visible
27 Jan ? 07:31:41 33° W 07:31:41 33° W 07:34:57 10° WSW visible
27 Jan ? 13:52:08 10° ENE 13:54:25 14° NE 13:56:37 10° N visible
27 Jan ? 15:26:39 10° SE 15:31:05 40° ENE 15:35:33 10° N visible
27 Jan ? 17:04:11 10° S 17:08:49 48° W 17:13:28 10° NNW visible
28 Jan ? 04:57:21 22° ENE 04:58:00 23° E 05:01:45 10° SE visible
28 Jan ? 06:36:15 81° NW 06:36:20 82° WNW 06:41:06 10° SSW visible
28 Jan ? 08:15:08 19° WNW 08:15:08 19° WNW 08:17:10 10° W visible
28 Jan ? 14:33:36 10° E 14:37:08 21° NE 14:40:40 10° N visible
28 Jan ? 16:09:28 10° SSE 16:14:15 74° ENE 16:19:03 10° NNW visible
28 Jan ? 17:48:34 10° SSW 17:52:29 25° W 17:56:27 10° NW visible
29 Jan ? 05:40:46 38° ENE 05:41:44 43° E 05:46:15 10° S visible
29 Jan ? 07:19:39 43° WNW 07:19:39 43° WNW 07:24:01 10° SW visible
29 Jan ? 08:58:33 11° WNW 08:58:33 11° WNW 08:58:45 10° WNW visible
29 Jan ? 13:41:40 10° NE 13:43:28 12° NNE 13:45:17 10° N visible
29 Jan ? 15:15:44 10° ESE 15:20:02 34° NE 15:24:21 10° N visible
29 Jan ? 16:52:55 10° S 16:57:38 58° WSW 17:02:23 10° NNW visible
30 Jan ? 04:45:13 17° ENE 04:46:43 19° E 04:50:06 10° SE visible
30 Jan ? 06:24:06 54° NNE 06:25:12 85° ESE 06:29:58 10° SSW visible
30 Jan ? 08:02:59 25° WNW 08:02:59 25° WNW 08:06:23 10° WSW visible
30 Jan ? 14:22:54 10° E 14:26:09 19° NE 14:29:24 10° N visible
30 Jan ? 15:58:25 10° SE 16:03:08 63° ENE 16:07:53 10° NNW visible
30 Jan ? 17:37:03 10° SSW 17:41:15 30° W 17:45:27 10° NNW visible
31 Jan ? 05:28:29 25° NE 05:30:30 36° E 05:34:54 10° SSE visible
31 Jan ? 07:07:21 42° NNW 07:08:27 51° WNW 07:13:03 10° SW visible
31 Jan ? 08:46:14 15° NW 08:46:14 15° NW 08:48:09 10° WNW visible
31 Jan ? 13:31:23 10° NE 13:32:33 11° NNE 13:33:42 10° NNE visible
31 Jan ? 15:04:52 10° ESE 15:09:00 30° NE 15:13:08 10° N visible
31 Jan ? 16:41:41 10° S 16:46:28 69° WSW 16:51:15 10° NNW visible
31 Jan ? 18:22:15 10° WSW 18:25:07 16° W 18:27:58 10° NW visible
01 Feb ? 04:32:43 11° NE 04:35:26 16° E 04:38:20 10° ESE visible
01 Feb ? 06:11:35 29° NNE 06:14:03 72° ESE 06:18:48 10° S visible
01 Feb ? 07:50:27 27° NNW 07:51:30 29° NW 07:55:33 10° WSW visible
01 Feb?09:29:19NW09:29:19NW09:23:56Nvisible
01 Feb ? 14:12:14 10° E 14:15:10 16° NE 14:18:07 10° N visible
01 Feb ? 15:47:24 10° SE 15:52:03 53° ENE 15:56:42 10° NNW visible
01 Feb ? 17:25:38 10° SSW 17:30:00 35° W 17:34:25 10° NNW visible
02 Feb ? 05:15:31 12° NE 05:19:17 30° E 05:23:28 10° SSE visible
02 Feb ? 06:54:21 22° N 06:57:21 61° WNW 07:02:02 10° SW visible
02 Feb ? 08:33:10 17° NNW 08:34:20 18° NW 08:37:30 10° W visible
02 Feb ? 14:54:02 10° ESE 14:57:58 26° NE 15:01:54 10° N visible
02 Feb ? 16:30:31 10° SSE 16:35:18 82° WSW 16:40:08 10° NNW visible
02 Feb ? 18:10:28 10° SW 18:13:48 19° W 18:17:09 10° NW visible
